Time,TemperatureF,DewpointF,PressureIn,WindDirection,WindDirectionDegrees,WindSpeedMPH,WindSpeedGustMPH,Humidity,HourlyPrecipIn,Conditions,Clouds,dailyrainin,SoftwareType,DateUTC
2013-05-13 00:02:00,47.0,44.0,30.41,SE,135,0.0,2.0,90,0.00,,,0.00,,2013-05-13 05:02:00,
2013-05-13 00:12:00,47.0,44.0,30.41,SE,135,0.0,2.0,90,0.00,,,0.00,,2013-05-13 05:12:00,
2013-05-13 00:21:00,47.0,44.0,30.41,SE,135,0.0,2.0,90,0.00,,,0.00,,2013-05-13 05:21:00,
2013-05-13 00:32:00,47.0,44.0,30.41,SE,135,0.0,2.0,90,0.00,,,0.00,,2013-05-13 05:32:00,
2013-05-13 00:42:00,47.0,44.0,30.41,SE,135,0.0,2.0,90,0.00,,,0.00,,2013-05-13 05:42:00,
2013-05-13 00:52:00,49.0,46.0,30.41,North,0,0.0,2.0,88,0.00,,,0.00,,2013-05-13 05:52:00,
2013-05-13 01:01:00,49.0,46.0,30.41,South,180,0.0,3.0,88,0.00,,,0.00,,2013-05-13 06:01:00,
2013-05-13 01:11:00,49.0,46.0,30.41,South,180,0.0,3.0,88,0.00,,,0.00,,2013-05-13 06:11:00,
2013-05-13 01:21:00,49.0,46.0,30.41,West,270,0.0,2.0,89,0.00,,,0.00,,2013-05-13 06:21:00,
2013-05-13 01:31:00,49.0,46.0,30.42,East,90,0.0,2.0,89,0.00,,,0.00,,2013-05-13 06:31:00,
2013-05-13 01:42:00,49.0,46.0,30.42,East,90,0.0,2.0,89,0.00,,,0.00,,2013-05-13 06:42:00,
2013-05-13 01:52:00,49.0,46.0,30.41,South,180,0.0,1.0,89,0.00,,,0.00,,2013-05-13 06:52:00,
2013-05-13 02:01:00,49.0,46.0,30.41,South,180,0.0,1.0,89,0.00,,,0.00,,2013-05-13 07:01:00,
2013-05-13 02:11:00,49.0,46.0,30.41,South,180,0.0,1.0,89,0.00,,,0.00,,2013-05-13 07:11:00,
2013-05-13 02:22:00,49.0,46.0,30.41,South,180,0.0,1.0,89,0.00,,,0.00,,2013-05-13 07:22:00,
2013-05-13 02:31:00,49.0,46.0,30.40,East,90,0.0,5.0,90,0.00,,,0.00,,2013-05-13 07:31:00,
2013-05-13 02:42:00,49.0,46.0,30.40,East,90,0.0,5.0,90,0.00,,,0.00,,2013-05-13 07:42:00,
2013-05-13 02:52:00,48.0,45.0,30.40,SW,225,0.0,3.0,90,0.00,,,0.00,,2013-05-13 07:52:00,
2013-05-13 03:02:00,48.0,45.0,30.40,North,0,0.0,2.0,90,0.00,,,0.00,,2013-05-13 08:02:00,
2013-05-13 03:11:00,48.0,45.0,30.40,North,0,0.0,2.0,90,0.00,,,0.00,,2013-05-13 08:11:00,
2013-05-13 03:21:00,48.0,45.0,30.40,North,0,0.0,2.0,90,0.00,,,0.00,,2013-05-13 08:21:00,
2013-05-13 03:31:00,48.0,45.0,30.40,North,0,0.0,2.0,90,0.00,,,0.00,,2013-05-13 08:31:00,
2013-05-13 03:42:00,48.0,45.0,30.40,North,0,0.0,2.0,90,0.00,,,0.00,,2013-05-13 08:42:00,
2013-05-13 04:33:00,46.0,44.0,30.39,SW,225,0.0,2.0,94,0.00,,,0.00,,2013-05-13 09:33:00,
2013-05-13 04:42:00,46.0,44.0,30.39,SW,225,0.0,2.0,94,0.00,,,0.00,,2013-05-13 09:42:00,
2013-05-13 04:52:00,46.0,44.0,30.39,SW,225,0.0,2.0,94,0.00,,,0.00,,2013-05-13 09:52:00,
2013-05-13 05:03:00,46.0,44.0,30.39,SW,225,0.0,2.0,94,0.00,,,0.00,,2013-05-13 10:03:00,
2013-05-13 05:12:00,46.0,44.0,30.39,SW,225,0.0,2.0,94,0.00,,,0.00,,2013-05-13 10:12:00,
2013-05-13 05:52:00,47.0,45.0,30.40,North,0,0.0,5.0,92,0.00,,,0.00,,2013-05-13 10:52:00,
2013-05-13 06:02:00,47.0,45.0,30.39,North,360,0.0,5.0,92,0.00,,,0.00,,2013-05-13 11:02:00,
2013-05-13 06:12:00,47.0,45.0,30.39,North,360,0.0,5.0,92,0.00,,,0.00,,2013-05-13 11:12:00,
2013-05-13 06:21:00,47.0,45.0,30.39,North,360,0.0,5.0,92,0.00,,,0.00,,2013-05-13 11:21:00,
2013-05-13 06:32:00,47.0,45.0,30.39,North,360,0.0,5.0,92,0.00,,,0.00,,2013-05-13 11:32:00,
2013-05-13 06:42:00,47.0,45.0,30.39,North,360,0.0,5.0,92,0.00,,,0.00,,2013-05-13 11:42:00,
2013-05-13 07:01:00,48.0,45.0,30.39,South,180,0.0,2.0,91,0.00,,,0.00,,2013-05-13 12:01:00,
2013-05-13 07:11:00,48.0,45.0,30.39,South,180,0.0,2.0,91,0.00,,,0.00,,2013-05-13 12:11:00,
2013-05-13 07:21:00,48.0,45.0,30.39,South,180,0.0,2.0,91,0.00,,,0.00,,2013-05-13 12:21:00,
2013-05-13 07:32:00,48.0,45.0,30.39,South,180,0.0,2.0,91,0.00,,,0.00,,2013-05-13 12:32:00,
2013-05-13 07:42:00,48.0,45.0,30.39,South,180,0.0,2.0,91,0.00,,,0.00,,2013-05-13 12:42:00,
2013-05-13 07:52:00,51.0,48.0,30.38,ENE,68,0.0,7.0,88,0.00,,,0.00,,2013-05-13 12:52:00,
2013-05-13 08:01:00,52.0,48.0,30.37,West,270,1.0,5.0,85,0.00,,,0.00,,2013-05-13 13:01:00,
2013-05-13 08:11:00,52.0,48.0,30.37,West,270,1.0,5.0,85,0.00,,,0.00,,2013-05-13 13:11:00,
2013-05-13 08:21:00,52.0,48.0,30.37,West,270,1.0,5.0,85,0.00,,,0.00,,2013-05-13 13:21:00,
2013-05-13 08:31:00,57.0,50.0,30.38,South,180,1.0,5.0,77,0.00,,,0.00,,2013-05-13 13:31:00,
2013-05-13 08:41:00,57.0,50.0,30.38,South,180,1.0,5.0,77,0.00,,,0.00,,2013-05-13 13:41:00,
2013-05-13 08:52:00,59.0,50.0,30.38,South,180,2.0,7.0,71,0.00,,,0.00,,2013-05-13 13:52:00,
2013-05-13 09:02:00,59.0,50.0,30.38,South,180,2.0,7.0,71,0.00,,,0.00,,2013-05-13 14:02:00,
2013-05-13 09:11:00,59.0,50.0,30.38,South,180,2.0,7.0,71,0.00,,,0.00,,2013-05-13 14:11:00,
2013-05-13 09:22:00,59.0,50.0,30.38,South,180,2.0,7.0,71,0.00,,,0.00,,2013-05-13 14:22:00,
2013-05-13 09:31:00,64.0,51.0,30.38,South,180,4.0,10.0,62,0.00,,,0.00,,2013-05-13 14:31:00,
2013-05-13 09:42:00,64.0,51.0,30.38,South,180,4.0,10.0,62,0.00,,,0.00,,2013-05-13 14:42:00,
2013-05-13 09:52:00,65.0,50.0,30.37,South,180,4.0,10.0,58,0.00,,,0.00,,2013-05-13 14:52:00,
2013-05-13 10:01:00,67.0,49.0,30.37,South,180,6.0,17.0,53,0.00,,,0.00,,2013-05-13 15:01:00,
2013-05-13 10:11:00,67.0,49.0,30.37,South,180,6.0,17.0,53,0.00,,,0.00,,2013-05-13 15:11:00,
2013-05-13 10:21:00,67.0,49.0,30.37,South,180,6.0,17.0,53,0.00,,,0.00,,2013-05-13 15:21:00,
2013-05-13 10:31:00,71.0,51.0,30.36,SW,225,5.0,14.0,49,0.00,,,0.00,,2013-05-13 15:31:00,
2013-05-13 10:42:00,71.0,51.0,30.36,SW,225,5.0,14.0,49,0.00,,,0.00,,2013-05-13 15:42:00,
2013-05-13 10:53:00,72.0,53.0,30.36,SW,225,4.0,11.0,51,0.00,,,0.00,,2013-05-13 15:53:00,
2013-05-13 11:03:00,73.0,51.0,30.35,SW,225,5.0,18.0,46,0.00,,,0.00,,2013-05-13 16:03:00,
2013-05-13 11:11:00,73.0,51.0,30.35,SW,225,5.0,18.0,46,0.00,,,0.00,,2013-05-13 16:11:00,
2013-05-13 11:21:00,73.0,51.0,30.35,SSW,202,5.0,11.0,46,0.00,,,0.00,,2013-05-13 16:21:00,
2013-05-13 11:33:00,74.0,52.0,30.35,SW,225,5.0,14.0,46,0.00,,,0.00,,2013-05-13 16:33:00,
2013-05-13 11:42:00,75.0,51.0,30.35,SE,135,4.0,14.0,43,0.00,,,0.00,,2013-05-13 16:42:00,
2013-05-13 11:52:00,75.0,51.0,30.35,SE,135,4.0,14.0,43,0.00,,,0.00,,2013-05-13 16:52:00,
2013-05-13 12:02:00,76.0,52.0,30.35,NE,45,3.0,10.0,43,0.00,,,0.00,,2013-05-13 17:02:00,
2013-05-13 12:12:00,76.0,52.0,30.35,NE,45,3.0,10.0,43,0.00,,,0.00,,2013-05-13 17:12:00,
2013-05-13 12:21:00,76.0,52.0,30.35,NE,45,3.0,10.0,43,0.00,,,0.00,,2013-05-13 17:21:00,
2013-05-13 12:32:00,77.0,52.0,30.35,South,180,4.0,10.0,42,0.00,,,0.00,,2013-05-13 17:32:00,
2013-05-13 12:42:00,77.0,52.0,30.35,South,180,4.0,10.0,42,0.00,,,0.00,,2013-05-13 17:42:00,
2013-05-13 12:54:00,77.0,52.0,30.35,South,180,4.0,10.0,42,0.00,,,0.00,,2013-05-13 17:54:00,
2013-05-13 13:03:00,78.0,55.0,30.34,NE,45,4.0,9.0,45,0.00,,,0.00,,2013-05-13 18:03:00,
2013-05-13 13:12:00,78.0,55.0,30.34,NE,45,4.0,9.0,45,0.00,,,0.00,,2013-05-13 18:12:00,
2013-05-13 13:23:00,78.0,54.0,30.34,SW,225,3.0,10.0,44,0.00,,,0.00,,2013-05-13 18:23:00,
2013-05-13 13:32:00,79.0,54.0,30.33,WSW,248,3.0,10.0,42,0.00,,,0.00,,2013-05-13 18:32:00,
2013-05-13 13:42:00,80.0,55.0,30.33,NE,45,2.0,10.0,42,0.00,,,0.00,,2013-05-13 18:42:00,
2013-05-13 13:52:00,80.0,55.0,30.33,NE,45,2.0,10.0,42,0.00,,,0.00,,2013-05-13 18:52:00,
2013-05-13 14:01:00,80.0,55.0,30.33,SE,135,4.0,11.0,42,0.00,,,0.00,,2013-05-13 19:01:00,
2013-05-13 14:11:00,80.0,55.0,30.33,SE,135,4.0,11.0,42,0.00,,,0.00,,2013-05-13 19:11:00,
2013-05-13 14:21:00,81.0,57.0,30.33,South,180,3.0,9.0,44,0.00,,,0.00,,2013-05-13 19:21:00,
2013-05-13 14:32:00,81.0,58.0,30.33,South,180,3.0,10.0,45,0.00,,,0.00,,2013-05-13 19:32:00,
2013-05-13 14:44:00,81.0,58.0,30.33,South,180,3.0,10.0,45,0.00,,,0.00,,2013-05-13 19:44:00,
2013-05-13 14:53:00,81.0,58.0,30.33,South,180,3.0,10.0,45,0.00,,,0.00,,2013-05-13 19:53:00,
2013-05-13 15:01:00,81.0,58.0,30.33,South,180,3.0,10.0,45,0.00,,,0.00,,2013-05-13 20:01:00,
2013-05-13 15:11:00,81.0,58.0,30.33,South,180,3.0,10.0,45,0.00,,,0.00,,2013-05-13 20:11:00,
2013-05-13 15:23:00,82.0,56.0,30.32,West,270,4.0,10.0,41,0.00,,,0.00,,2013-05-13 20:23:00,
2013-05-13 15:34:00,82.0,56.0,30.32,West,270,4.0,10.0,41,0.00,,,0.00,,2013-05-13 20:34:00,
2013-05-13 15:44:00,82.0,56.0,30.32,West,270,4.0,10.0,41,0.00,,,0.00,,2013-05-13 20:44:00,
2013-05-13 15:53:00,81.0,56.0,30.31,North,360,3.0,11.0,42,0.00,,,0.00,,2013-05-13 20:53:00,
2013-05-13 16:03:00,81.0,56.0,30.31,North,360,3.0,11.0,42,0.00,,,0.00,,2013-05-13 21:03:00,
2013-05-13 16:14:00,81.0,56.0,30.31,North,360,3.0,11.0,42,0.00,,,0.00,,2013-05-13 21:14:00,
2013-05-13 16:23:00,82.0,57.0,30.31,NW,315,4.0,15.0,43,0.00,,,0.00,,2013-05-13 21:23:00,
2013-05-13 16:33:00,82.0,57.0,30.31,NW,315,4.0,15.0,43,0.00,,,0.00,,2013-05-13 21:33:00,
2013-05-13 16:43:00,82.0,57.0,30.31,NW,315,4.0,15.0,43,0.00,,,0.00,,2013-05-13 21:43:00,
2013-05-13 16:53:00,81.0,58.0,30.30,South,180,4.0,12.0,46,0.00,,,0.00,,2013-05-13 21:53:00,
2013-05-13 17:02:00,82.0,59.0,30.30,NE,45,3.0,10.0,45,0.00,,,0.00,,2013-05-13 22:02:00,
2013-05-13 17:12:00,82.0,59.0,30.30,NE,45,3.0,10.0,45,0.00,,,0.00,,2013-05-13 22:12:00,
2013-05-13 17:23:00,82.0,59.0,30.30,NE,45,3.0,10.0,45,0.00,,,0.00,,2013-05-13 22:23:00,
2013-05-13 17:32:00,82.0,59.0,30.30,NE,45,3.0,10.0,45,0.00,,,0.00,,2013-05-13 22:32:00,
2013-05-13 17:42:00,82.0,59.0,30.30,NE,45,3.0,10.0,45,0.00,,,0.00,,2013-05-13 22:42:00,
2013-05-13 18:02:00,81.0,59.0,30.29,SW,225,2.0,7.0,48,0.00,,,0.00,,2013-05-13 23:02:00,
2013-05-13 18:12:00,81.0,59.0,30.29,SW,225,2.0,7.0,48,0.00,,,0.00,,2013-05-13 23:12:00,
2013-05-13 18:23:00,81.0,59.0,30.29,SW,225,2.0,7.0,48,0.00,,,0.00,,2013-05-13 23:23:00,
2013-05-13 18:33:00,81.0,59.0,30.28,NE,45,2.0,9.0,47,0.00,,,0.00,,2013-05-13 23:33:00,
2013-05-13 18:42:00,81.0,59.0,30.28,NE,45,2.0,9.0,47,0.00,,,0.00,,2013-05-13 23:42:00,
2013-05-13 18:54:00,80.0,60.0,30.28,SW,225,2.0,7.0,50,0.00,,,0.00,,2013-05-13 23:54:00,
2013-05-13 19:02:00,79.0,59.0,30.28,SE,135,2.0,8.0,50,0.00,,,0.00,,2013-05-14 00:02:00,
2013-05-13 19:12:00,79.0,59.0,30.28,SE,135,2.0,8.0,50,0.00,,,0.00,,2013-05-14 00:12:00,
2013-05-13 19:22:00,79.0,59.0,30.28,SE,135,2.0,8.0,50,0.00,,,0.00,,2013-05-14 00:22:00,
2013-05-13 19:31:00,79.0,59.0,30.28,SE,135,2.0,8.0,50,0.00,,,0.00,,2013-05-14 00:31:00,
2013-05-13 19:41:00,79.0,59.0,30.28,SE,135,2.0,8.0,50,0.00,,,0.00,,2013-05-14 00:41:00,
2013-05-13 19:52:00,78.0,61.0,30.27,SW,225,2.0,5.0,55,0.00,,,0.00,,2013-05-14 00:52:00,
2013-05-13 20:02:00,78.0,61.0,30.27,SW,225,2.0,5.0,55,0.00,,,0.00,,2013-05-14 01:02:00,
2013-05-13 20:11:00,78.0,61.0,30.27,SW,225,2.0,5.0,55,0.00,,,0.00,,2013-05-14 01:11:00,
2013-05-13 20:21:00,76.0,60.0,30.27,North,0,0.0,4.0,57,0.00,,,0.00,,2013-05-14 01:21:00,
2013-05-13 20:30:00,72.0,58.0,30.27,North,0,0.0,0.0,62,0.00,,,0.00,,2013-05-14 01:30:00,
2013-05-13 20:32:00,74.0,59.0,30.27,North,0,0.0,2.0,59,0.00,,,0.00,,2013-05-14 01:32:00,
2013-05-13 20:43:00,74.0,59.0,30.27,North,0,0.0,2.0,59,0.00,,,0.00,,2013-05-14 01:43:00,
2013-05-13 20:53:00,72.0,58.0,30.27,North,0,0.0,0.0,62,0.00,,,0.00,,2013-05-14 01:53:00,
2013-05-13 21:02:00,72.0,58.0,30.27,North,0,0.0,0.0,62,0.00,,,0.00,,2013-05-14 02:02:00,
2013-05-13 21:11:00,72.0,58.0,30.27,North,0,0.0,0.0,62,0.00,,,0.00,,2013-05-14 02:11:00,
2013-05-13 21:22:00,72.0,58.0,30.27,North,0,0.0,0.0,62,0.00,,,0.00,,2013-05-14 02:22:00,
2013-05-13 21:52:00,67.0,58.0,30.27,SE,135,0.0,2.0,74,0.00,,,0.00,,2013-05-14 02:52:00,
2013-05-13 22:01:00,66.0,59.0,30.28,SE,135,0.0,3.0,77,0.00,,,0.00,,2013-05-14 03:01:00,
2013-05-13 22:11:00,66.0,59.0,30.28,SE,135,0.0,3.0,77,0.00,,,0.00,,2013-05-14 03:11:00,
2013-05-13 22:21:00,66.0,59.0,30.28,SE,135,0.0,3.0,77,0.00,,,0.00,,2013-05-14 03:21:00,
2013-05-13 22:33:00,65.0,59.0,30.28,East,90,1.0,5.0,81,0.00,,,0.00,,2013-05-14 03:33:00,
2013-05-13 22:42:00,65.0,59.0,30.28,East,90,1.0,5.0,81,0.00,,,0.00,,2013-05-14 03:42:00,
2013-05-13 22:53:00,65.0,59.0,30.28,East,90,1.0,5.0,81,0.00,,,0.00,,2013-05-14 03:53:00,
2013-05-13 23:02:00,65.0,59.0,30.27,South,180,1.0,4.0,82,0.00,,,0.00,,2013-05-14 04:02:00,
2013-05-13 23:13:00,65.0,59.0,30.27,South,180,1.0,4.0,82,0.00,,,0.00,,2013-05-14 04:13:00,
2013-05-13 23:23:00,65.0,59.0,30.27,South,180,1.0,4.0,82,0.00,,,0.00,,2013-05-14 04:23:00,
2013-05-13 23:32:00,65.0,59.0,30.27,South,180,1.0,4.0,82,0.00,,,0.00,,2013-05-14 04:32:00,
2013-05-13 23:43:00,65.0,59.0,30.27,South,180,1.0,4.0,82,0.00,,,0.00,,2013-05-14 04:43:00,